Tracking 19832 objects as of 26-Aug-2019
HD Live streaming from Space Station
objects crossing your sky now

COSMOS 2251 DEB

Track COSMOS 2251 DEB now!
10-day predictions


NORAD ID: 35291
Int'l Code: 1993-036AJV
Perigee: 523.9 km
Apogee: 657.3 km
Inclination: 74.0 °
Period: 96.3 minutes
Semi major axis: 6961 km
RCS: 0.0106 m2 (small)
Launch date: June 16, 1993
Source: Commonwealth of Independent States (former USSR) (CIS)
Launch site: PLESETSK MISSILE AND SPACE COMPLEX (PKMTR)

Note: This is SATELLITE DEBRIS
aabbcc
Your satellite tracking list
Your tracking list is empty




NASA's NSSDC Master Catalog

Two Line Element Set (TLE):
1 35291U 93036AJV 19237.77222362  .00000542  00000-0  49650-4 0  9993
2 35291  74.0436 348.6022 0095826 301.7241 216.4488 14.94642876560239
Source of the keplerian elements: AFSPC